COSMOS 2529 (757) (43687 NORAD) Tracking and Keplerian Element Data

This shows tracking and keplerian element data for the satellite.

Feedback or suggestion? Click here.




ElementValue
Catalog43687
NameCOSMOS 2529 (757)
Epoch Orbit4864
Epoch Day33.88949884
Epoch Year2025
RAAN209.462
Inclination64.2955
Eccentricity0.0006755
Argument of Perigee258.1799
Mean Anonmoly101.7397
Mean Motion2.13101908
Decay Rate9.8E-07
L11 43687U 18086A 25033.88949884 .00000098 00000+0 00000+0 0 9997
L22 43687 64.2955 209.4620 0006755 258.1799 101.7397 2.13101908 48643



Live tracking and technical data element details for COSMOS 2529 (757) (NORAD 43687). COSMOS 2529 (757) can be tracked NOW for your location showing map with azimuth and elevation plus other details from your city location.







IsCatalogInMostPopularTable: catalog: 43687, numindb: 628
Update: records affected: 1



GetName: 43687 COSMOS 2529 (757)

Hit Count: updated at: Fri, 16 May 2025 11:02:07 GMT